Regional Weather Roundup
Issued by NWS

Home | Current Version | Previous Version | Graphics & Text | Print | Product List | Glossary Off
Versions: 1 2 3 4 5 6 7 8 9 10 11 12 13 14 15 16 17 18 19 20 21 22 23 24 25 26 27 28 29 30 31 32 33 34 35 36 37 38 39 40 41 42 43 44 45 46 47 48 49 50

000
ASUS43 KTOP 060608
RWRKS

WEATHER ROUNDUP FOR KANSAS
NATIONAL WEATHER SERVICE GOODLAND KS
100 AM CDT WED MAY 06 2015

NOTE:  "FAIR" INDICATES FEW OR NO CLOUDS BELOW 12,000 FEET WITH NO
SIGNIFICANT WEATHER AND/OR OBSTRUCTIONS TO VISIBILITY.

KSZ001>006-013>018-027>032-041>047-060700-
NORTHWEST KANSAS

CITY           SKY/WX    TMP DP  RH WIND       PRES   REMARKS
GOODLAND       MOCLDY    52  51  97 S18       29.76S
6HR MIN TEMP:  52; 6HR MAX TEMP:  57; 6HR PCP:  0.10;

HAYS           CLOUDY    61  55  82 SE15      29.84F
HILL CITY      CLOUDY    62  59  90 SE14      29.82F
6HR MIN TEMP:  59; 6HR MAX TEMP:  62; 6HR PCP:  0.13;

RUSSELL        CLOUDY    62  60  93 SE18      29.83F
6HR MIN TEMP:  60; 6HR MAX TEMP:  63; 6HR PCP:  0.01;

$$

KSZ061>065-074>080-084>089-060700-
SOUTHWEST KANSAS

CITY           SKY/WX    TMP DP  RH WIND       PRES   REMARKS
DODGE CITY     CLOUDY    60  58  92 SE15      29.80F
6HR MIN TEMP:  60; 6HR MAX TEMP:  62; 6HR PCP:  0.12;

ELKHART          N/A     51  46  83 S13         N/A
GARDEN CITY    PTCLDY    52  51  97 E12       29.76F
6HR MIN TEMP:  52; 6HR MAX TEMP:  61; 6HR PCP:  0.17;

GREAT BEND     CLOUDY    63  57  82 S14       29.84F
LIBERAL        PTCLDY    54  48  82 SE10      29.81S
PRATT          LGT RAIN  61  59  94 SE17G24   29.85F
$$

KSZ066>073-081>083-090>101-060700-
SOUTHEAST KANSAS

CITY           SKY/WX    TMP DP  RH WIND       PRES   REMARKS
CHANUTE        CLOUDY    68  60  75 SE9       29.98F
6HR MIN TEMP:  66; 6HR MAX TEMP:  69; 6HR PCP:  0.01;

COFFEYVILLE    LGT RAIN  65  62  90 SE5       29.97F
6HR MIN TEMP:  65; 6HR MAX TEMP:  71; 6HR PCP:  0.10;

HUTCHINSON     LGT RAIN  64  61  90 E14G21    29.86F FOG
6HR MIN TEMP:  63; 6HR MAX TEMP:  65;

MEDICINE LODGE   N/A     63  62  97 SE14G21   29.82F
NEWTON         CLOUDY    63  57  82 SE20G26   29.93F
PARSONS        LGT RAIN  66  63  90 S3        29.99F
6HR MIN TEMP:  66; 6HR MAX TEMP:  70; 6HR PCP: TRACE;

WICHITA INTL   HVY RAIN  64  62  93 SE7       29.89S FOG
6HR MIN TEMP:  64; 6HR MAX TEMP:  65; 6HR PCP:  0.55;

WICHITA JABRA  HVY RAIN  61  60  97 SE15      29.91F FOG
6HR MIN TEMP:  61; 6HR MAX TEMP:  65; 6HR PCP:  0.41;

WICHITA MCCONL RAIN      61  59  94 NE12      29.86F FOG
WINFIELD       RAIN      65  63  93 S15G32    29.92S
6HR MIN TEMP:  63; 6HR MAX TEMP:  65; 6HR PCP:  0.91;

$$

KSZ007>012-019>026-033>040-048>060-102>105-060700-
NORTHEAST KANSAS

CITY           SKY/WX    TMP DP  RH WIND       PRES   REMARKS
CONCORDIA      CLOUDY    64  58  80 SE20G26   29.91F
6HR MIN TEMP:  63; 6HR MAX TEMP:  68; 6HR PCP: TRACE;

EMPORIA        LGT RAIN  64  63  96 SE9       29.96F
6HR MIN TEMP:  64; 6HR MAX TEMP:  69; 6HR PCP:  0.21;

LAWRENCE       CLOUDY    65  62  90 E3        30.00F
6HR MIN TEMP:  64; 6HR MAX TEMP:  68; 6HR PCP:  0.15;

MANHATTAN      CLOUDY    66  61  84 S15       29.94F
6HR MIN TEMP:  66; 6HR MAX TEMP:  75; 6HR PCP: TRACE;

MARYSVILLE     CLOUDY    63  61  94 SE12G18   29.95F
OLATHE IND     CLOUDY    67  60  78 SE9       30.01F
6HR MIN TEMP:  65; 6HR MAX TEMP:  68; 6HR PCP:  0.79;

OLATHE EXE     MOCLDY    66  61  84 SE8       30.00F
6HR MIN TEMP:  65; 6HR MAX TEMP:  71; 6HR PCP:  0.39;

SALINA         LGT RAIN  65  61  87 SE18G25   29.89F
6HR MIN TEMP:  63; 6HR MAX TEMP:  70; 6HR PCP:  0.01;

TOPEKA BILLARD CLOUDY    65  63  93 E6        29.99F
6HR MIN TEMP:  65; 6HR MAX TEMP:  66; 6HR PCP:  0.51;

TOPEKA FORBES  LGT RAIN  65  63  93 E7        29.98F
6HR MIN TEMP:  65; 6HR MAX TEMP:  66; 6HR PCP:  0.43;

$$



USA.gov is the U.S. government's official web portal to all federal, state and local government web resources and services.